Flag for U.S.A. Weather past 2 weeks in St. Louis, Missouri, U.S.A.

Now
47 °F

Passing clouds.


Feels Like: 46 °F
Forecast: 44 / 67 °F
Wind: 3 mph from North

Location: Lambert-St. Louis International Airport


UV Index: 5 (Moderate)

Visibility: 9 mi


Pressure: 30.29 "Hg

Humidity: 71%

Dew point: 38 °F

Location of St. LouisLocation

Historic Weather in St. Louis

°F

St. Louis temperature yesterday

Maximum temperature yesterday: 66 °F (at 2:51 PM)
Minimum temperature yesterday: 46 °F (at 5:51 AM)
Average temperature yesterday: 56 °F

Past Weeks' High & Low Weather Summary

 TemperatureHumidityPressure
High83 °F (Apr 10, 1:51 PM)94% (Apr 3, 11:59 AM)30.29 "Hg (Apr 3, 11:59 AM)
Low32 °F (Apr 15, 2:51 AM)19% (Apr 11, 3:51 PM)29.49 "Hg (Apr 13, 11:51 PM)
Average55 °F55%29.96 "Hg
* Reported Apr 3 5:51 AM — Apr 18 5:51 AM, St. Louis, Weather by CustomWeather, © 2014

Note: Actual official high and low records may vary slightly from our data, if they occured in-between our weather recording intervals... More about our weather records

Advertising

Historic Weather Conditions — Data for Previous 24 hours

 ConditionsComfort  
Time TempWeatherWind HumidityBarometerVisibility
5:51 AM
Apr 18
47 °FPassing clouds.3 mph71%30.29 "Hg9 mi
4:51 AM47 °FPassing clouds.5 mph71%30.28 "Hg9 mi
3:51 AM49 °FPassing clouds.3 mph66%30.27 "Hg10 mi
2:51 AM52 °FPassing clouds.3 mph61%30.25 "Hg10 mi
1:51 AM52 °FPartly cloudy.5 mph59%30.26 "Hg10 mi
12:51 AM52 °FPassing clouds.5 mph61%30.27 "Hg10 mi
11:51 PM
Apr 17
53 °FMostly cloudy.3 mph59%30.27 "Hg10 mi
10:51 PM53 °FMostly cloudy.5 mph61%30.27 "Hg10 mi
9:51 PM55 °FPartly cloudy.6 mph57%30.27 "Hg10 mi
8:51 PM57 °FPassing clouds.9 mph53%30.25 "Hg10 mi
7:51 PM59 °FBroken clouds.7 mph51%30.22 "Hg10 mi
6:51 PM62 °FPartly sunny.8 mph43%30.23 "Hg10 mi
5:51 PM64 °FBroken clouds.8 mph40%30.23 "Hg10 mi
4:51 PM65 °FCloudy.7 mph37%30.22 "Hg10 mi
3:51 PM65 °FCloudy.3 mph37%30.22 "Hg10 mi
2:51 PM66 °FOvercast.7 mph36%30.23 "Hg10 mi
1:51 PM65 °FOvercast.6 mph36%30.24 "Hg10 mi
12:51 PM63 °FMore clouds than sun.12 mph37%30.25 "Hg10 mi
11:51 AM62 °FMore clouds than sun.6 mph37%30.26 "Hg10 mi
10:51 AM59 °FMore clouds than sun.7 mph39%30.26 "Hg10 mi
9:51 AM58 °FPartly sunny.8 mph41%30.24 "Hg10 mi
8:51 AM53 °FPartly sunny.7 mph47%30.22 "Hg10 mi
7:51 AM50 °FPartly sunny.6 mph48%30.22 "Hg10 mi
6:51 AM46 °FPartly cloudy.No wind54%30.19 "Hg10 mi
Weather by CustomWeather, © 2014

See weather overview